Location: Newark
(35.8833°N, 14.5000°E)
Time: 08:13:23
(UTC+00:00)

N. Korean satellite - Visible Passes

Search period start: 14 October 2019 00:00
Search period end: 24 October 2019 00:00
Orbit: 455 x 508 km, 97.2° (Epoch: 13 October)

Date Brightness Start Highest point End Pass type
(mag) Time Alt. Az. Time Alt. Az. Time Alt. Az.
14 Oct 9.4 04:16:36 10° NE 04:19:33 24° E 04:22:30 10° SSE visible
15 Oct 10.4 03:52:58 10° ENE 03:54:08 11° E 03:55:17 10° ESE visible
16 Oct 10.0 17:06:09 10° SW 17:08:20 16° W 17:10:32 10° NW visible
17 Oct 8.1 04:33:41 10° NNE 04:37:07 42° E 04:40:35 10° S visible
18 Oct 9.7 04:09:04 10° NE 04:11:45 19° E 04:14:26 10° SE visible
20 Oct 9.7 16:57:53 10° SW 17:00:28 20° W 17:03:05 10° NW visible
21 Oct 8.7 04:25:59 10° NNE 04:29:18 33° E 04:32:39 10° SSE visible
22 Oct 10.1 04:01:37 10° NE 04:03:54 16° E 04:06:12 10° SE visible
23 Oct 10.3 17:16:44 10° WSW 17:18:02 12° W 17:19:20 10° WNW visible
